When you browse on this site, cookies collect data to enhance your experience and personalize the content and advertising you see.
Visit our Privacy Policy to learn more. By continuing to use the site, you agree to this use of cookies and data.
  • In Hungary
  • List of Countries
  • For 7 days
  • Water Temperature
  • Satellite Maps
  • Weather Map
  • News
  • Weather Widgets
  • user-avatar
    Login

    Hourly Weather Szczepkowo

    Today, 17 December, Monday

    Time Temperature Precipitation Wind Pressure Humidity
    00:00 -4°C° 0 mm 2 mps 754 mmHg 89%
    01:00 -4°C° 0 mm 2 mps 754 mmHg 90%
    02:00 -5°C° 0 mm 2 mps 754 mmHg 90%
    03:00 -5°C° 0 mm 2 mps 754 mmHg 89%
    04:00 -5°C° 0 mm 2 mps 754 mmHg 89%
    05:00 -5°C° 0 mm 2 mps 754 mmHg 88%
    06:00 -4°C° 0 mm 2 mps 754 mmHg 88%
    07:00 -4°C° 0 mm 2 mps 754 mmHg 88%
    08:00 -4°C° 0 mm 2 mps 754 mmHg 87%
    09:00 -4°C° 0 mm 2 mps 755 mmHg 86%
    10:00 -3°C° 0 mm 2 mps 755 mmHg 85%
    11:00 -3°C° 0 mm 2 mps 755 mmHg 84%
    12:00 0°C° 0 mm 1 mps 755 mmHg 83%
    13:00 0°C° 0 mm 1 mps 755 mmHg 82%
    14:00 0°C° 0 mm 1 mps 756 mmHg 85%
    15:00 -1°C° 0 mm 1 mps 756 mmHg 87%
    16:00 -1°C° 0 mm 1 mps 756 mmHg 90%
    17:00 -1°C° 0 mm 1 mps 756 mmHg 90%
    18:00 -2°C° 0 mm 1 mps 757 mmHg 90%
    19:00 -2°C° 0 mm 1 mps 757 mmHg 91%
    20:00 -2°C° 0 mm 1 mps 757 mmHg 91%
    21:00 -2°C° 0 mm 1 mps 758 mmHg 91%
    22:00 -3°C° 0 mm 1 mps 758 mmHg 91%
    23:00 -3°C° 0 mm 1 mps 758 mmHg 91%

    Tomorrow, 18 December, Tuesday

    Time Temperature Precipitation Wind Pressure Humidity
    00:00 -3°C° 0 mm 1 mps 759 mmHg 91%
    01:00 -3°C° 0 mm 1 mps 759 mmHg 91%
    02:00 -3°C° 0 mm 1 mps 759 mmHg 91%
    03:00 -3°C° 0 mm 1 mps 759 mmHg 91%
    04:00 -3°C° 0 mm 1 mps 759 mmHg 90%
    05:00 -3°C° 0 mm 1 mps 759 mmHg 90%
    06:00 -3°C° 0 mm 1 mps 759 mmHg 90%
    07:00 -4°C° 0 mm 1 mps 760 mmHg 90%
    08:00 -3°C° 0 mm 1 mps 760 mmHg 88%
    09:00 -2°C° 0 mm 1 mps 760 mmHg 87%
    10:00 -2°C° 0 mm 1 mps 760 mmHg 86%
    11:00 -1°C° 0 mm 1 mps 760 mmHg 85%
    12:00 -3°C° 0 mm 2 mps 760 mmHg 85%
    13:00 -2°C° 0 mm 2 mps 760 mmHg 84%
    14:00 -3°C° 0 mm 2 mps 760 mmHg 86%
    15:00 -3°C° 0 mm 2 mps 760 mmHg 89%
    16:00 -4°C° 0 mm 2 mps 760 mmHg 91%
    17:00 -4°C° 0 mm 2 mps 760 mmHg 91%
    18:00 -4°C° 0 mm 2 mps 760 mmHg 92%
    19:00 -4°C° 0 mm 2 mps 760 mmHg 92%
    20:00 -4°C° 0 mm 2 mps 760 mmHg 92%
    21:00 -4°C° 0 mm 2 mps 760 mmHg 92%
    22:00 -4°C° 0 mm 2 mps 760 mmHg 93%
    23:00 -4°C° 0 mm 2 mps 760 mmHg 93%

    Day after tomorrow, 19 December, Wednesday

    Time Temperature Precipitation Wind Pressure Humidity
    00:00 -5°C° 0 mm 3 mps 760 mmHg 93%
    01:00 -5°C° 0 mm 3 mps 760 mmHg 93%
    02:00 -5°C° 0 mm 3 mps 760 mmHg 93%
    03:00 -5°C° 0 mm 3 mps 759 mmHg 93%
    04:00 -5°C° 0 mm 3 mps 759 mmHg 93%
    05:00 -6°C° 0 mm 3 mps 759 mmHg 93%
    06:00 -6°C° 0 mm 3 mps 759 mmHg 93%
    07:00 -6°C° 0 mm 3 mps 760 mmHg 92%
    08:00 -7°C° 0 mm 4 mps 760 mmHg 90%
    09:00 -7°C° 0 mm 4 mps 760 mmHg 89%
    10:00 -5°C° 0 mm 4 mps 760 mmHg 87%
    11:00 -5°C° 0 mm 4 mps 759 mmHg 86%
    12:00 -5°C° 0 mm 5 mps 759 mmHg 86%
    13:00 -5°C° 0 mm 5 mps 759 mmHg 85%
    14:00 -5°C° 0 mm 5 mps 759 mmHg 86%
    15:00 -6°C° 0 mm 5 mps 758 mmHg 87%
    16:00 -6°C° 0 mm 5 mps 758 mmHg 89%
    17:00 -6°C° 0 mm 5 mps 758 mmHg 89%
    18:00 -7°C° 0 mm 5 mps 758 mmHg 89%
    19:00 -7°C° 0 mm 5 mps 758 mmHg 89%
    20:00 -7°C° 0 mm 5 mps 758 mmHg 90%
    21:00 -8°C° 0 mm 6 mps 757 mmHg 90%
    22:00 -8°C° 0 mm 6 mps 757 mmHg 91%
    23:00 -8°C° 0 mm 6 mps 757 mmHg 90%

    20 December, Thursday

    Time Temperature Precipitation Wind Pressure Humidity
    00:00 -8°C° 0 mm 6 mps 757 mmHg 90%
    01:00 -8°C° 0 mm 6 mps 757 mmHg 89%
    02:00 -8°C° 0 mm 6 mps 757 mmHg 89%
    03:00 -8°C° 0 mm 6 mps 756 mmHg 89%
    04:00 -7°C° 0 mm 5 mps 756 mmHg 89%
    05:00 -7°C° 0 mm 5 mps 756 mmHg 89%
    06:00 -7°C° 0 mm 5 mps 756 mmHg 89%
    07:00 -7°C° 0 mm 5 mps 756 mmHg 89%
    08:00 -7°C° 0 mm 5 mps 756 mmHg 89%
    09:00 -7°C° 0 mm 5 mps 756 mmHg 88%
    10:00 -7°C° 0 mm 5 mps 756 mmHg 88%
    11:00 -7°C° 0 mm 5 mps 756 mmHg 87%
    12:00 -7°C° 0 mm 4 mps 756 mmHg 86%
    13:00 -7°C° 0 mm 4 mps 755 mmHg 85%
    14:00 -7°C° 0 mm 4 mps 755 mmHg 85%
    15:00 -7°C° 0 mm 4 mps 755 mmHg 86%
    16:00 -7°C° 0 mm 4 mps 755 mmHg 86%
    17:00 -7°C° 0 mm 4 mps 755 mmHg 86%
    18:00 -7°C° 0 mm 4 mps 755 mmHg 87%
    19:00 -7°C° 0 mm 4 mps 755 mmHg 87%
    20:00 -7°C° 0 mm 4 mps 755 mmHg 88%
    21:00 -7°C° 0 mm 4 mps 755 mmHg 88%
    22:00 -7°C° 0 mm 4 mps 755 mmHg 89%
    23:00 -7°C° 0 mm 4 mps 755 mmHg 89%

    21 December, Friday

    Time Temperature Precipitation Wind Pressure Humidity
    00:00 -7°C° 0 mm 4 mps 755 mmHg 90%
    01:00 -7°C° 0 mm 4 mps 755 mmHg 91%
    02:00 -6°C° 0 mm 3 mps 754 mmHg 91%
    03:00 -6°C° 0 mm 3 mps 754 mmHg 91%
    04:00 -6°C° 0 mm 3 mps 754 mmHg 92%
    05:00 -6°C° 0 mm 3 mps 754 mmHg 92%
    06:00 -6°C° 0 mm 3 mps 754 mmHg 92%
    07:00 -6°C° 0 mm 3 mps 754 mmHg 92%
    08:00 -6°C° 0.1 mm 3 mps 754 mmHg 92%
    09:00 -6°C° 0.1 mm 3 mps 754 mmHg 91%
    10:00 -6°C° 0.1 mm 3 mps 754 mmHg 91%
    11:00 -5°C° 0.1 mm 3 mps 754 mmHg 91%
    12:00 -5°C° 0.1 mm 3 mps 754 mmHg 90%
    13:00 -5°C° 0.1 mm 3 mps 754 mmHg 90%
    14:00 -4°C° 0.1 mm 2 mps 754 mmHg 91%
    15:00 -4°C° 0.1 mm 2 mps 754 mmHg 92%
    16:00 -4°C° 0.1 mm 2 mps 754 mmHg 93%
    17:00 -4°C° 0.1 mm 2 mps 754 mmHg 93%
    18:00 -4°C° 0.1 mm 2 mps 754 mmHg 94%
    19:00 -4°C° 0.1 mm 2 mps 753 mmHg 95%
    20:00 -4°C° 0.1 mm 2 mps 753 mmHg 95%
    21:00 -4°C° 0.1 mm 2 mps 753 mmHg 95%
    22:00 -4°C° 0.1 mm 2 mps 753 mmHg 95%
    23:00 -4°C° 0 mm 2 mps 753 mmHg 95%

    22 December, Saturday

    Time Temperature Precipitation Wind Pressure Humidity
    00:00 -4°C° 0 mm 2 mps 753 mmHg 95%
    01:00 -4°C° 0 mm 2 mps 753 mmHg 95%
    02:00 -4°C° 0 mm 2 mps 753 mmHg 95%
    03:00 -4°C° 0 mm 2 mps 753 mmHg 96%
    04:00 -4°C° 0 mm 2 mps 753 mmHg 96%
    05:00 -4°C° 0 mm 2 mps 753 mmHg 95%
    06:00 -3°C° 0 mm 2 mps 753 mmHg 95%
    07:00 -3°C° 0 mm 2 mps 753 mmHg 95%
    08:00 -4°C° 0 mm 3 mps 753 mmHg 94%
    09:00 -4°C° 0 mm 3 mps 753 mmHg 93%
    10:00 -2°C° 0 mm 3 mps 753 mmHg 93%
    11:00 -2°C° 0 mm 3 mps 753 mmHg 93%
    12:00 -2°C° 0 mm 3 mps 753 mmHg 93%
    13:00 -1°C° 0 mm 3 mps 754 mmHg 93%
    14:00 -1°C° 0 mm 3 mps 754 mmHg 94%
    15:00 -2°C° 0 mm 3 mps 754 mmHg 95%
    16:00 -2°C° 0 mm 2 mps 754 mmHg 95%
    17:00 -2°C° 0 mm 2 mps 755 mmHg 96%
    18:00 -2°C° 0 mm 2 mps 755 mmHg 96%
    19:00 -1°C° 0 mm 2 mps 755 mmHg 96%
    20:00 -1°C° 0 mm 2 mps 756 mmHg 96%
    21:00 -1°C° 0 mm 2 mps 756 mmHg 96%
    22:00 -1°C° 0 mm 2 mps 756 mmHg 96%
    23:00 -1°C° 0 mm 2 mps 757 mmHg 96%
    Show more